STARLINK-35161, 65936

Orbit data source: Space-Track

STARLINK-35161, 65936 is a payload satellite owned by SpaceX/Seattle (US) in LEO that was launched on Wed, 08 Oct 2025 UTC via an FALCON 9 launch vehicle from the Air Force Western Test Range (AFWTR). Payload-class satellites include a variety of spacecraft equipped with specific instruments for various scientific and technological missions. These include communications satellites like Starlink; space stations such as the ISS; scientific satellites like the Hubble; Earth observation satellites from companies like Planet Labs, Umbra, and HawkEye 360; GPS; miniature CubeSats for education and research; and military/defense satellites.

Loading next visibility...
Identifier
65936, 2025-225AC
Orbit
LEO
Country
Flag of USUS
Related business
Manufacturer
SpaceX/Seattle
Mission
Operational Commercial Communications
Bus & Motor
STARLINK V2MO, Unknown motor
Mass
575 kg wet, ~530 kg dry
Launch date (UTC)
2025-10-08 (8 months ago)
Launch vehicle
FALCON 9
Launch site
Air Force Western Test Range (AFWTR)
Object type
Payload
Rocket body
Debris
Shape & HBR
Box + 2 Pan, 17.7 m
Radar Cross Section
36.964 m², Large (>1 m²)

Expand to show TLE details & history
Last TLE update: 2 days ago

TLE from 2 days ago
0 STARLINK-35161
1 65936U 25225AC  26149.28259203 -.00016932  00000-0 -56050-3 0  9990
2 65936  53.1571 151.5872 0001330  96.3511 263.7641 15.30219668 35855
Epoch: 2026-05-29T06:46Z
TLE epoch observation values (Epoch: 2026-05-29T06:46:55.951Z)
Latitude
-0.00003°
Longitude
163.03884°
Altitude
476.155 km
Speed
7.629 km/s
True Right ascension
10h 06m 20s
True Declination
0° 00' 00"
Sunlit
Object was in daylight at epoch
Visualization orbit readout
Latitude
Unknown
Longitude
Unknown
Altitude
Unknown
Speed
Unknown
Apparent Right ascension
Unknown
Apparent Declination
Unknown
Sunlit
N/A
Visualization observer readout
Local Sidereal Time
04:02:04
Azimuth
Unknown
Elevation
Unknown
Doppler factor
Unknown
Orbital elements
Apogee altitude
476.325 km
Perigee altitude
474.502 km
Semi-major axis
6,853.55 km
Eccentricity
0.00013
Inclination
53.1571°
RAAN
151.5872°
Arg. of periapsis
96.3511°
True anomaly
263.74895°
Mean anomaly
263.7641°
Eccentric anomaly
263.75652°
Mean motion
3.82534 °/min
Orbital period
94.11 mins
BSTAR
-0.0005605
Loading maneuver chart data...
Computing Atmospheric mass density...
Loading historical data...
Loading historical data...
Loading historical data...
Loading historical data...
Loading historical data...
Loading historical data...
Loading historical data...

Documentation

Showing up to 5 results
|